This demonstration page uses our WeatherBlox Daily Observations layout. Learn more.

Left ArrowRight Arrow

Hourly Observations for February 4, 2016

Temp ( °F °C ) Dew Point ( °F °C ) Humidity (%) Winds ( mph kmh ) Pressure ( in mb ) Visibility ( mi km ) Precip ( " mm )
12:51 am 00:51 Clear 29 -1.7 16 -8.9 58 58 N N/A 30.37 1029 10 16.0934 N/A
1:51 am 01:51 Clear 28 -2.2 16 -8.9 60 60 NE 7 11 30.38 1029 10 16.0934 N/A
2:51 am 02:51 Clear 27 -2.8 16 -8.9 63 63 SW 3 6 30.37 1028 10 16.0934 N/A
3:51 am 03:51 Clear 23 -5 16 -8.9 74 74 SE 3 6 30.37 1029 10 16.0934 N/A
4:51 am 04:51 Clear 28 -2.2 12 -11.1 51 51 SSE 6 9 30.37 1029 10 16.0934 N/A
5:51 am 05:51 Clear 29 -1.7 10 -12.2 45 45 ESE 9 15 30.39 1029 10 16.0934 N/A
6:51 am 06:51 Clear 27 -2.8 10 -12.2 49 49 ESE 8 13 30.41 1030 10 16.0934 N/A
7:51 am 07:51 Sunny 30 -1.1 9 -12.8 41 41 SE 8 13 30.42 1030 10 16.0934 N/A
8:51 am 08:51 Sunny 37 2.8 9 -12.8 31 31 ESE 9 15 30.42 1030 10 16.0934 N/A
9:51 am 09:51 Sunny 41 5 8 -13.3 25 25 ESE 14 22 30.42 1030 10 16.0934 N/A
10:51 am 10:51 Sunny 43 6.1 7 -13.9 22 22 SE 8 13 30.42 1030 10 16.0934 N/A
11:51 am 11:51 Sunny 46 7.8 9 -12.8 22 22 SSE 12 19 30.37 1028 10 16.0934 N/A
12:51 pm 12:51 Sunny 49 9.4 8 -13.3 19 19 SE 10 17 30.32 1027 10 16.0934 N/A
1:51 pm 13:51 Sunny 50 10 6 -14.4 17 17 VRB 6 9 30.28 1025 10 16.0934 N/A
2:51 pm 14:51 Sunny 52 11.1 6 -14.4 15 15 undefined N/A 30.25 1024 10 16.0934 N/A
3:51 pm 15:51 Sunny 53 11.7 8 -13.3 16 16 E 5 7 30.23 1024 10 16.0934 N/A
4:51 pm 16:51 Sunny 52 11.1 8 -13.3 17 17 WSW 6 9 30.21 1023 10 16.0934 N/A
5:51 pm 17:51 Sunny 49 9.4 9 -12.8 20 20 WSW 5 7 30.21 1023 10 16.0934 N/A
6:51 pm 18:51 Clear 41 5 12 -11.1 30 30 NNW 3 6 30.24 1024 10 16.0934 N/A
7:51 pm 19:51 Clear 37 2.8 14 -10 39 39 N 8 13 30.26 1025 10 16.0934 N/A
8:51 pm 20:51 Clear 35 1.7 14 -10 42 42 ESE 5 7 30.26 1025 10 16.0934 N/A
9:51 pm 21:51 Clear 32 undefined 15 -9.4 50 50 N N/A 30.27 1025 10 16.0934 N/A
10:51 pm 22:51 Clear 30 -1.1 15 -9.4 54 54 N N/A 30.27 1025 10 16.0934 N/A
11:51 pm 23:51 Clear 29 -1.7 15 -9.4 56 56 N N/A 30.27 1025 10 16.0934 N/A

Powered by AerisWeather